361  
ASUS44 KLIX 230605  
RWRLIX  
NEW ORLEANS REGIONAL WEATHER ROUNDUP  
NATIONAL WEATHER SERVICE NEW ORLEANS LA  
100 AM CDT SAT JUN 23 2018  
 
NOTE: "FAIR" INDICATES FEW OR NO CLOUDS BELOW 12,000 FEET WITH NO  
SIGNIFICANT WEATHER AND/OR S TO VISIBILITY
.  
SKY/WX - SKY CONDITION AND SIGNIFICANT WEATHER.  
TMP - AIR TEMPERATURE. DP - DEWPOINT TEMPERATURE.  
RH - RELATIVE HUMIDITY. PRES - PRESSURE.  
HI - HEAT INDEX. WCI - WIND CHILL INDEX.  
 
* THESE STATIONS ARE NOT NWS OR FAA STATIONS AND ARE NOT UNDER  
NWS QUALITY CONTROL.  
 
LAZ038-040-048-061>063-065>067-069-230700-  
SOUTHEAST LOUISIANA  
 
CITY SKY/WX TMP DP RH WIND PRES REMARKS
 
N.O. INTL ARPT FAIR 80 76 87 SW6 29.90R  
6HR MIN TEMP: 80; 6HR MAX TEMP: 88;  
 
N.O. LAKEFRONT FAIR 81 75 82 SW12 29.90S  
6HR MIN TEMP: 81; 6HR MAX TEMP: 88;  
 
N.O. DOWNTOWN* FAIR 83 75 77 SW5 29.92R  
6HR MIN TEMP: 83; 6HR MAX TEMP: 91;  
 
RESERVE* N/A 82 74 79 SW9 29.91R  
6HR MIN TEMP: 80; 6HR MAX TEMP: 88;  
 
SLIDELL FAIR 81 73 76 SW6 29.89R  
6HR MIN TEMP: 81; 6HR MAX TEMP: 89;  
 
BATON ROUGE MOCLDY 80 75 84 S10 29.88R  
6HR MIN TEMP: 80; 6HR MAX TEMP: 88;  
 
BOOTHVILLE FAIR 84 76 76 SW10 29.93S  
6HR MIN TEMP: 84; 6HR MAX TEMP: 87;  
 
BELLE CHASSE FAIR 77 77 100 CALM 29.90S  
6HR MIN TEMP: 75; 6HR MAX TEMP: 86;  
 
BOGALUSA* FAIR 80 73 78 SW7 29.89S  
6HR MIN TEMP: 80; 6HR MAX TEMP: 91;  
 
GALLIANO* FAIR 80 72 77 S8 29.91F  
6HR MIN TEMP: 78; 6HR MAX TEMP: 85;  
 
NEW ROADS* FAIR 77 73 88 S5 29.89R  
GONZALES* FAIR 77 74 91 S3 29.89R  
6HR MIN TEMP: 77; 6HR MAX TEMP: 87;  
 
HAMMOND* FAIR 77 73 88 SW7 29.89S  
HOUMA* FAIR 77 75 93 S5 29.91S  
6HR MIN TEMP: 76; 6HR MAX TEMP: 85;  
 
PORT FOURCHON* PTCLDY 82 77 83 S12 29.92F  
 

 
 
MSZ070-080>082-230700-  
SOUTHERN MISSISSIPPI  
 
CITY SKY/WX TMP DP RH WIND PRES REMARKS
 
MCCOMB FAIR 78 72 81 SW7 29.89R  
6HR MIN TEMP: 78; 6HR MAX TEMP: 88;  
 
GULFPORT FAIR 83 75 77 VRB6 29.89R  
6HR MIN TEMP: 83; 6HR MAX TEMP: 89;  
 
BILOXI FAIR 82 75 78 SW14 29.89R  
6HR MIN TEMP: 82; 6HR MAX TEMP: 88;  
 
PASCAGOULA FAIR 83 74 74 VRB6 29.89S  
6HR MIN TEMP: 83; 6HR MAX TEMP: 87;  
 

 
 
COASTAL OBSERVATIONS  
LAKE AND NEARSHORE STATIONS  
 
STATION/POSITION TIME SKY/WX TEMP WIND PRES WAVE
 
AIR SEA DIR/SP/G HT/PER  
(UTC) (F) (DEG/KT/KT) (MB) (FT/S)  
WAVELAND YACHT 0548 81 87 250/ 6/ 11 1012.3  
GRAND ISLE 0542 82 86 230/ 7/ 13 1013.3  
SOUTHWEST PASS 0548 83 83 1014.4  
NEW CANAL 0542 81 86 220/ 8/ 11 1012.5  
SHELL BEACH 0548 81 88 210/ 9/ 12 1012.7  
 
OFFSHORE STATIONS  
 
STATION/POSITION TIME SKY/WX TEMP WIND PRES WAVE
 
AIR SEA DIR/SP/G HT/PER  
(UTC) (F) (DEG/KT/KT) (MB) (FT/S)  
64 S DAUPHIN ISL 0550 84 210/ 14/ 16 1013.7 2/ 4  
 

 
 
 
 
CLICK HERE TO GO TO PREVIOUS BULLETINS.

The Nexlab LA Page
The Nexlab MS Page Main Text Page